Regional Weather Roundup
Issued by NWS Little Rock, AR

Home | Current Version | Previous Version | Graphics & Text | Print | Product List | Glossary On
Versions: 1 2 3 4 5 6 7 8 9 10 11 12 13 14 15 16 17 18 19 20 21 22 23 24 25 26 27 28 29 30 31 32 33 34 35 36 37 38 39 40 41 42 43 44 45 46 47
000
ASUS44 KLZK 181705
RWRLZK

WEATHER ROUNDUP FOR ARKANSAS
NATIONAL WEATHER SERVICE LITTLE ROCK AR
1200 PM CDT MON SEP 18 2017

NOTE: "FAIR" INDICATES FEW OR NO CLOUDS BELOW 12,000 FEET WITH NO
SIGNIFICANT WEATHER AND/OR OBSTRUCTIONS TO VISIBILITY.

ARZ001-003-010-029-181800-
NORTHWEST ARKANSAS

CITY           SKY/WX    TMP DP  RH WIND       PRES   REMARKS
FAYETTEVILLE   MOSUNNY   77  71  82 W3        30.07F
FORT SMITH     MOSUNNY   84  69  60 CALM      30.04S HX  88
HARRISON       LGT RAIN  72  69  90 SE3       30.08F
BENTONVILLE    CLOUDY    75  68  78 SW8       30.09F
ROGERS         CLOUDY    76  68  76 SW7       30.09F
SILOAM SPGS    CLOUDY    77  69  76 SW8       30.08F
HIGHFILL       CLOUDY    76  69  79 SW6       30.08F
SPRINGDALE     MOSUNNY   77  70  78 W6        30.10F
$$

ARZ004-005-016-181800-
NORTH CENTRAL ARKANSAS

CITY           SKY/WX    TMP DP  RH WIND       PRES   REMARKS
BATESVILLE     PTSUNNY  N/A N/A N/A SW12      30.03F
FLIPPIN        CLOUDY    77  67  71 SE3       30.06F
MTN HOME       CLOUDY    75  69  81 SE6       30.06F
$$

ARZ040-041-181800-
WEST CENTRAL ARKANSAS

CITY           SKY/WX    TMP DP  RH WIND       PRES   REMARKS
MENA           CLOUDY    88  64  45 CALM      30.08F HX  89
MOUNT IDA      MOSUNNY   85  64  49 VRB3      30.04S HX  86
$$

ARZ009-017-025-026-028-181800-
NORTHEAST ARKANSAS

CITY           SKY/WX    TMP DP  RH WIND       PRES   REMARKS
CORNING        FAIR      88  75  66 S7        30.03F HX  97
JONESBORO      SUNNY     87  74  64 W7        30.02F HX  95
NEWPORT        SUNNY     88  70  55 SW8       30.03F HX  93
BLYTHEVILLE    SUNNY     87  73  62 VRB6      30.04F HX  94
NW BLYTHEVILLE MOSUNNY   91  72  52 SW6       30.03F HX  98
$$

ARZ022-023-033-042-044-181800-
CENTRAL ARKANSAS

CITY           SKY/WX    TMP DP  RH WIND       PRES   REMARKS
LITTLE ROCK    MOSUNNY   86  73  65 VRB3      30.03F HX  93
N LITTLE ROCK    N/A     85  72  63 SW5       30.03F HX  91
CONWAY           N/A     90  70  51 W5        30.01F HX  95
SEARCY         SUNNY     88  75  65 S7        30.04F HX  97
HOT SPRINGS    PTSUNNY   87  69  54 VRB3      30.04S HX  91
RUSSELLVILLE   PTSUNNY   86  70  58 CALM      30.03F HX  90
CLINTON        PTSUNNY   84  72  65 SW5       30.04F HX  89
$$

ARZ036-181800-
EAST ARKANSAS

CITY           SKY/WX    TMP DP  RH WIND       PRES   REMARKS
WEST MEMPHIS   MOSUNNY   89  73  59 SW5       30.02F HX  97
$$

ARZ050-053-066-070-073-181800-
SOUTHWEST ARKANSAS

CITY           SKY/WX    TMP DP  RH WIND       PRES   REMARKS
ARKADELPHIA    FAIR      88  73  61 VRB3      30.04F HX  95
CAMDEN         PTSUNNY   84  73  70 VRB5      30.03F HX  91
TEXARKANA      MOSUNNY   84  71  65 NW9       30.06S HX  89
EL DORADO      MOSUNNY   87  72  60 SW5       30.04F HX  93
DE QUEEN       PTSUNNY   83  72  69 SW7       30.04S HX  88
$$

ARZ056-057-069-181800-
SOUTHEAST ARKANSAS

CITY           SKY/WX    TMP DP  RH WIND       PRES   REMARKS
PINE BLUFF     MOSUNNY   86  72  62 CALM      30.03F HX  92
STUTTGART      MOSUNNY   88  73  61 S8        30.03F HAZE    HX  95
MONTICELLO     CLOUDY    86  73  65 W5        30.03F HX  93

$$






USA.gov is the U.S. government's official web portal to all federal, state and local government web resources and services.